Regional Weather Roundup
Issued by NWS Charleston, SC

Current Version | Previous Version | Text Only | Print | Product List | Glossary On
Versions: 1 2 3 4 5 6 7 8 9 10 11 12 13 14 15 16 17 18 19 20 21 22 23 24 25 26 27 28 29 30 31 32 33 34 35 36 37 38 39 40 41 42 43 44 45 46 47 48 49 50
774 ASUS42 KCHS 202312 RWRCHS REGIONAL WEATHER ROUNDUP NATIONAL WEATHER SERVICE CHARLESTON SC 600 PM EST MON NOV 20 2017 NOTE: "FAIR" INDICATES FEW OR NO CLOUDS BELOW 12,000 FEET WITH NO SIGNIFICANT WEATHER AND/OR OBSTRUCTIONS TO VISIBILITY. NOT ALL STATIONS ARE QUALITY CONTROLLED. USE DATA WITH CAUTION... ESPECIALLY DEWPOINT OBSERVATIONS. SCZ027-030-031-034>040-042>050-210000- ...SOUTHEAST SOUTH CAROLINA... CITY SKY/WX TMP DP RH WIND PRES REMARKS N CHARLESTON PTCLDY 52 39 61 CALM 30.24R WATERFRONT PRK NOT AVBL JOHNS ISLAND FAIR 50 41 71 CALM 30.24S PINOPOLIS N/A 54 39 58 VRB2 30.14R MONCKS CORNER FAIR 45 41 87 CALM 30.24R SUMMERVILLE FAIR 50 41 71 CALM 30.24R BEAUFORT MCAS MOCLDY 53 42 66 CALM 30.24S BEAUFORT ARPT FAIR 52 39 62 E3 30.23R HILTON HEAD IS CLEAR 55 43 62 NE7 30.24S WALTERBORO CLEAR 45 36 70 CALM 30.24R ALLENDALE FAIR 50 37 62 CALM 30.21S ...SOUTHERN MIDLANDS AND PEE DEE... CITY SKY/WX TMP DP RH WIND PRES REMARKS GEORGETOWN FAIR 45 43 93 CALM 30.25R KINGSTREE NOT AVBL ORANGEBURG CLEAR 47 35 63 CALM 30.23R BARNWELL N/A 50 36 57 CALM 30.22S AIKEN FAIR 46 32 57 CALM 30.25S MANNING FAIR 45 23 42 MISG 30.24R COLUMBIA CLOUDY 54 31 41 SE3 30.22R SUMTER CLOUDY 48 30 48 CALM 30.21R FLORENCE CLOUDY 50 32 50 CALM 30.23S MYRTLE BEACH PTCLDY 50 40 68 CALM 30.25S N MYRTLE BEACH PTCLDY 47 41 80 CALM 30.23S $$ GAZ063-065-086>088-099>101-113>116-118-119-134>141-150-210000- ...SOUTHEAST GEORGIA... CITY SKY/WX TMP DP RH WIND PRES REMARKS SAVANNAH ARPT PTCLDY 54 39 57 E6 30.23S HUNTER AAF PTCLDY 54 41 61 NE5 30.20S FORT STEWART CLEAR 53 46 75 E6 30.20R STATESBORO CLEAR 50 32 50 CALM 30.22S SYLVANIA PTCLDY 51 41 67 CALM 30.24R CLAXTON FAIR 53 42 68 CALM 30.22R ...CSRA...CENTRAL AND FAR SOUTHEAST GEORGIA... CITY SKY/WX TMP DP RH WIND PRES REMARKS THOMSON PTCLDY 49 34 55 S3 30.25R AUGUSTA-BUSH PTCLDY 49 34 56 SE3 30.21R AUGUSTA-DANIEL CLEAR 56 30 37 E5 30.21S SWAINSBORO FAIR 50 37 62 E3 30.21S VIDALIA CLOUDY 54 41 62 E5 30.20S EASTMAN FAIR 56 26 31 E3 30.20F HAZLEHURST FAIR 56 34 43 NE3 30.17S ALMA MOCLDY 63 51 65 E6 30.17R WAYCROSS CLOUDY 63 49 61 SE9 30.18R JESUP FAIR 57 48 72 CALM 30.20S BAXLEY CLOUDY 59 46 63 E5 30.18R BRUNSWICK PTCLDY 59 50 72 NE9 30.19S SAINT SIMONS CLOUDY 62 53 72 NE10 30.18S $$ SCZ027-028-034-036>038-045-046-048>050-GAZ119-141-210000- ...LAKE AND SUPPLEMENTAL COASTAL OBSERVATIONS... STATION/POSITION TIME TEMP WIND PRES WAVE SWELL AIR SEA DIR/SP/G HT/PER HT/PER/DIR (UTC) (F) (DEG/KT/KT) (MB) (FT/S) (FT/S/D) WINYAH BAY 2145 55 100/ 3 1024.0 LAKE MURRAY 2220 58 120/ 3/ 5 1022.4S ACE BASIN NERRS 2145 55 130/ 2 1024.0 FORT PULASKI 2242 57 61 60/ 12/ 14 1023.7F SAPELO ISLAND 2200 61 50/ 8 1022.0 $$ ANZ835-935-AMZ111-154-330-350-352-354-370-450-454-472-210000- ...C-MAN AND BUOY OBSERVATIONS... STATION/POSITION TIME TEMP WIND PRES WAVE SWELL AIR SEA DIR/SP/G HT/PER HT/PER/DIR (UTC) (F) (DEG/KT/KT) (MB) (FT/S) (FT/S/D) BUOY 41004 2250 61 73 70/ 12/ 16 1023.1S 4/ 6 2/ 40/ 6 BUOY 41008 2250 64 68 70/ 14/ 16 1022.2S 3/ 5 2/ 90/ 7 FOLLY BEACH CMAN 2200 56 80/ 12/ 13 1024.3S CAPERS NEARSHORE 2208 53 62 90/ 12/ 16 1023.4F FRIPP NEARSHORE 2208 56 61 60/ 12/ 19 1022.8F STATION/POSITION TIME TEMP WIND PRES WAVE SWELL AIR SEA DIR/SP/G HT/PER HT/PER/DIR (UTC) (F) (DEG/KT/KT) (MB) (FT/S) (FT/S/D) 5E ST. MARYS GA 2230 67 N/A 4/ 6 FRYING PAN BUOY 2250 57 69 50/ 8/ 12 1023.8F 2/ 8 2/ 70/ 8 BUOY 41025 2250 54 66 360/ 6/ 10 1025.0R 3/ 8 3/ 70/ 8 CAPE LOOKOUT NC 2200 360/ 5/ 5 1024.6R BUOY 41002 2250 67 77 50/ 14/ 17 1022.1R 6/ 7 5/350/ 7 BUOY 41010 NOT AVBL ST AUGUSTINE FL 2300 70 67 90/ 13/ 14 1020.9R $$

USA.gov is the U.S. government's official web portal to all federal, state and local government web resources and services.